Flag for Poland Weather past 2 weeks in Lódz, Poland

Now
57 °F

Overcast.


Feels Like: 56 °F
Forecast: 48 / 56 °F
Wind: 7 mph from West

Location: Lodz

Current Time: Oct 20, 2014 at 8:15:53 PM

Latest Report: Oct 20, 2014 at 7:00 PM


Visibility: 11 mi

Pressure: 29.86 "Hg

Humidity: 73%

Dew point: 49 °F

Location of LódzLocation

Historic Weather in Lódz — Graph

°F

Lódz temperature yesterday

Maximum temperature yesterday: 65 °F (at 2:00 PM)
Minimum temperature yesterday: 44 °F (at 5:00 AM)
Average temperature yesterday: 54 °F

Past Weeks' High & Low Weather Summary

 TemperatureHumidityPressure
High75 °F (Oct 9, 3:00 PM)100% (Oct 15, 8:00 AM)30.35 "Hg (Oct 15, 8:00 AM)
Low36 °F (Oct 6, 7:00 AM)53% (Oct 9, 3:00 PM)29.69 "Hg (Oct 14, 10:00 AM)
Average56 °F85%29.97 "Hg
* Reported Oct 5 7:00 PM — Oct 20 7:00 PM, Lódz, Weather by CustomWeather, © 2014

Note: Actual official high and low records may vary slightly from our data, if they occured in-between our weather recording intervals... More about our weather records

Advertising

Lódz weather history for previous 24 hours

 ConditionsComfort  
Time TempWeatherWind HumidityBarometerVisibility
7:00 PM
Oct 20
57 °FOvercast.7 mph73%29.86 "Hg11 mi
6:00 PM58 °FOvercast.6 mph72%29.86 "Hg12 mi
5:00 PM59 °FOvercast.7 mph70%29.85 "Hg9 mi
4:00 PM60 °FPartly sunny.9 mph67%29.85 "Hg11 mi
3:00 PM61 °FPartly sunny.10 mph65%29.84 "Hg12 mi
2:00 PM60 °FPartly sunny.9 mph67%29.86 "Hg7 mi
1:00 PM60 °FOvercast.8 mph70%29.87 "Hg9 mi
12:00 PM61 °FOvercast.12 mph70%29.87 "Hg11 mi
11:00 AM60 °FPartly sunny.10 mph76%29.88 "Hg8 mi
10:00 AM59 °FOvercast.9 mph85%29.87 "Hg8 mi
9:00 AM58 °FOvercast.8 mph92%29.86 "Hg6 mi
8:00 AM58 °FSprinkles. Overcast.7 mph94%29.86 "Hg9 mi
7:00 AM57 °FOvercast.7 mph91%29.87 "Hg11 mi
5:00 AM59 °FSprinkles. Overcast.6 mph81%29.87 "Hg9 mi
4:00 AM59 °FOvercast.7 mph79%29.87 "Hg12 mi
3:00 AM57 °FOvercast.7 mph82%29.89 "Hg13 mi
2:00 AM57 °FPassing clouds.7 mph80%29.90 "Hg11 mi
1:00 AM56 °FPassing clouds.6 mph80%29.90 "Hg7 mi
12:00 AM56 °FClear.7 mph80%29.92 "Hg9 mi
11:00 PM
Oct 19
57 °FClear.7 mph78%29.93 "Hg11 mi
10:00 PM56 °FClear.7 mph79%29.94 "Hg9 mi
9:00 PM57 °FPassing clouds.6 mph81%29.95 "Hg12 mi
8:00 PM58 °FPassing clouds.5 mph81%29.97 "Hg12 mi
Weather by CustomWeather, © 2014

See weather overviewHow to use our weather pages